Weather History for Jersey, United Kingdom

Change the Weather History Date:

Friday, March 8, 2013

  Actual Average Record
Temperature  
Mean Temperature 52 °F -  
Max Temperature 57 °F 50 °F 58 °F (2014)
Min Temperature 47 °F 42 °F 35 °F (2011)
Degree Days  
Heating Degree Days 13    
Growing Degree Days 2 (Base 50)    
Moisture  
Dew Point 48 °F    
Average Humidity 88    
Maximum Humidity 100    
Minimum Humidity 64    
Precipitation  
Precipitation 0.00 in - - ()
Sea Level Pressure  
Sea Level Pressure 29.45 in    
Wind  
Wind Speed 6 mph ()    
Max Wind Speed 12 mph    
Max Gust Speed -    
Visibility 6.9 miles    
Events Fog , Rain    
Averages and records for this station are not official NWS values.
T = Trace of Precipitation, MM = Missing Value Source: Averaged Metar Reports

Daily Weather History Graph

Daily Weather History Graph

Search for Another Location

Airport:

Trip Planner

Search our weather history database for the weather conditions in past years. The results will help you decide how hot, cold, wet, or windy it might be!

Date:

Astronomy

Mar. 08, 2013 Rise Set
Actual Time 6:36 AM GMT 6:03 PM GMT
Civil Twilight 6:05 AM GMT 6:34 PM GMT
Nautical Twilight 5:28 AM GMT 7:11 PM GMT
Astronomical Twilight 4:51 AM GMT 7:49 PM GMT
Moon 4:26 AM GMT (3/8) 2:27 PM GMT (3/8)
Length of Visible Light 12h 29m
Length of Day
11h 26m
Waning Crescent, 13% of the Moon is Illuminated
Mar 8
Waning Crescent
Mar 11
New
Mar 19
First Quarter
Mar 27
Full
Apr 3
Last Quarter

Hourly Weather History & Observations

Time (GMT) Temp. Windchill Dew Point Humidity Pressure Visibility Wind Dir Wind Speed Gust Speed Precip Events Conditions
12:00 AM 49 °F - 48 °F 95% 29.35 in 5 mi SSE 6.9 mph - - Rain Rain
3:00 AM 49 °F - 49 °F 100% 29.36 in 0 mi West 8.1 mph - - Rain Light Rain
3:50 AM 48.2 °F - 48.2 °F 100% 29.36 in 3.1 mi NW 6.9 mph - N/A Fog , Rain Light Rain
4:20 AM 48.2 °F - 46.4 °F 93% 29.36 in 3.7 mi WNW 8.1 mph - N/A Rain Rain
4:50 AM 48.2 °F - 46.4 °F 93% 29.36 in 5.6 mi NW 6.9 mph - N/A Rain Rain
5:20 AM 48.2 °F - 46.4 °F 93% 29.36 in 6.2 mi North 6.9 mph - N/A Rain Rain
5:50 AM 46.4 °F 43.5 °F 46.4 °F 100% 29.36 in 6.2 mi NE 5.8 mph - N/A Rain Light Rain
6:00 AM 47 °F - 46 °F 97% 29.37 in 22 mi NE 6.9 mph - - Rain Light Rain
6:20 AM 48.2 °F - 46.4 °F 93% 29.36 in - NNE 4.6 mph - N/A   Clear
6:50 AM 48.2 °F - 46.4 °F 93% 29.36 in 6.2 mi NNE 3.5 mph - N/A   Partly Cloudy
7:20 AM 48.2 °F - 46.4 °F 93% 29.39 in 6.2 mi West 4.6 mph - N/A   Partly Cloudy
7:50 AM 48.2 °F - 46.4 °F 93% 29.39 in 6.2 mi NNE 2.3 mph - N/A   Mostly Cloudy
8:20 AM 50.0 °F - 48.2 °F 94% 29.42 in 6.2 mi West 1.2 mph - N/A   Scattered Clouds
8:50 AM 50.0 °F - 48.2 °F 94% 29.42 in 6.2 mi WSW 4.6 mph - N/A   Scattered Clouds
9:00 AM 50 °F - 48 °F 89% 29.44 in 28 mi West 3.5 mph - -   Partly Cloudy
9:20 AM 50.0 °F - 46.4 °F 87% 29.44 in 6.2 mi WSW 2.3 mph - N/A   Mostly Cloudy
9:50 AM 50.0 °F - 48.2 °F 94% 29.44 in 6.2 mi WSW 5.8 mph - N/A   Mostly Cloudy
10:20 AM 50.0 °F - 48.2 °F 94% 29.44 in 5.6 mi WSW 8.1 mph - N/A   Light Drizzle
10:50 AM 50.0 °F - 48.2 °F 94% 29.44 in 4.3 mi West 8.1 mph - N/A   Mostly Cloudy
11:20 AM 51.8 °F - 50.0 °F 94% 29.47 in 6.2 mi West 9.2 mph - N/A   Scattered Clouds
11:50 AM 53.6 °F - 50.0 °F 88% 29.47 in 6.2 mi West 9.2 mph - N/A   Partly Cloudy
12:00 PM 53 °F - 49 °F 84% 29.49 in 12 mi West 10.4 mph - -   Partly Cloudy
12:20 PM 53.6 °F - 50.0 °F 88% 29.47 in 6.2 mi West 10.4 mph - N/A   Partly Cloudy
12:50 PM 55.4 °F - 50.0 °F 82% 29.47 in 6.2 mi WSW 10.4 mph - N/A   Partly Cloudy
1:20 PM 55.4 °F - 50.0 °F 82% 29.47 in 6.2 mi WSW 9.2 mph - N/A   Partly Cloudy
1:50 PM 55.4 °F - 50.0 °F 82% 29.47 in 6.2 mi WSW 5.8 mph - N/A   Partly Cloudy
2:20 PM 55.4 °F - 50.0 °F 82% 29.47 in 6.2 mi WNW 5.8 mph - N/A   Partly Cloudy
2:50 PM 57.2 °F - 46.4 °F 67% 29.47 in 6.2 mi WNW 5.8 mph - N/A   Partly Cloudy
3:00 PM 56 °F - 47 °F 64% 29.49 in 19 mi West 5.8 mph - -   Scattered Clouds
3:20 PM 57.2 °F - 46.4 °F 67% 29.50 in 6.2 mi Variable 3.5 mph - N/A   Partly Cloudy
3:50 PM 57.2 °F - 48.2 °F 72% 29.50 in 6.2 mi West 2.3 mph - N/A   Partly Cloudy
4:20 PM 57.2 °F - 48.2 °F 72% 29.47 in 6.2 mi Calm Calm - N/A   Partly Cloudy
4:50 PM 55.4 °F - 48.2 °F 77% 29.50 in 6.2 mi Variable 2.3 mph - N/A   Scattered Clouds
5:20 PM 51.8 °F - 46.4 °F 82% 29.50 in 6.2 mi South 9.2 mph - N/A   Scattered Clouds
5:50 PM 50.0 °F - 46.4 °F 87% 29.53 in 6.2 mi South 4.6 mph - N/A   Partly Cloudy
6:00 PM 50 °F - 47 °F 85%  in 17 mi South 4.6 mph - - Rain Light Rain Showers
6:20 PM 51.8 °F - 48.2 °F 88% 29.53 in 6.2 mi SSW 4.6 mph - N/A   Partly Cloudy
6:50 PM 51.8 °F - 48.2 °F 88% 29.53 in 6.2 mi South 6.9 mph - N/A Rain Light Rain Showers
7:20 PM 50.0 °F - 48.2 °F 94% 29.53 in 6.2 mi South 6.9 mph - N/A Rain Light Rain Showers
7:50 PM 50.0 °F - 48.2 °F 94% 29.53 in 6.2 mi South 8.1 mph - N/A   Mostly Cloudy
8:20 PM 50.0 °F - 48.2 °F 94% 29.53 in 6.2 mi South 10.4 mph - N/A   Mostly Cloudy
8:50 PM 50.0 °F - 48.2 °F 94% 29.53 in 6.2 mi South 10.4 mph - N/A Rain Light Rain Showers
9:00 PM 50 °F - 47 °F 87% 29.56 in 19 mi South 11.5 mph - - Rain Light Rain Showers